Theta_e
339 340 344 344 352 354 356 356 346 346 345 344 347 346 346 348 346 337 342 340 339 338 340 343 344 343 340 339 341 348 350 350 347 344 344 343 344 346 340 341 350 352 351 351 352 351 351 352 350
341 340 346 345 353 358 360 350 351 348 345 344 345 346 348 351 346 343 343 339 337 339 341 341 341 341 340 341 343 348 349 349 345 344 343 340 341 343 342 342 352 352 352 352 352 352 351 350 349
346 348 341 349 352 357 360 351 351 348 345 344 348 346 347 348 343 343 342 337 337 340 342 340 339 341 341 342 342 343 342 342 345 349 347 345 343 343 351 351 350 348 352 350 352 350 346 346 346
350 343 342 351 359 355 356 354 351 347 344 345 346 352 345 344 344 343 338 336 338 340 340 340 343 340 342 342 345 342 343 344 352 348 348 346 350 352 351 352 350 352 351 352 350 344 344 345 346
343 345 352 353 358 354 352 351 349 349 349 348 347 351 348 345 344 341 338 337 338 340 339 339 340 339 345 346 345 350 349 350 349 347 345 344 345 347 352 352 351 351 351 346 344 344 344 344 345
345 349 356 359 357 352 351 350 349 351 349 347 349 350 346 344 343 342 336 335 335 338 342 341 341 339 341 341 344 346 346 346 348 348 342 344 344 347 351 349 348 346 347 342 341 343 343 344 346
351 353 356 355 355 353 352 345 350 351 349 350 346 349 345 343 344 343 339 337 340 342 345 345 342 343 344 342 343 342 345 347 347 345 347 349 351 351 350 350 350 350 350 346 341 343 343 345 344
347 351 354 353 354 354 350 347 345 349 351 345 343 349 347 342 346 344 343 342 344 345 345 348 348 344 346 347 347 348 345 345 347 349 351 350 350 351 348 347 350 350 348 345 341 342 344 344 342
346 351 355 353 351 355 350 353 348 348 350 348 346 344 342 343 347 347 345 345 346 347 347 347 348 346 347 349 350 349 350 350 348 348 347 349 347 346 348 352 350 349 346 337 337 338 339 341 340
352 352 354 352 348 351 350 351 351 349 350 350 346 341 342 346 347 347 345 345 348 348 347 348 347 345 347 350 346 343 344 346 343 342 344 344 344 345 346 347 345 346 346 346 339 335 335 338 339
352 355 354 349 346 349 351 352 348 347 352 348 347 343 344 345 346 346 346 346 347 346 347 347 346 344 347 346 341 338 338 341 340 339 341 345 346 343 342 342 343 345 344 338 334 335 337 337 339
354 349 350 349 348 351 353 350 352 348 348 345 344 341 344 344 345 345 346 346 346 346 345 345 344 343 343 342 342 341 340 339 340 344 344 344 343 342 336 341 342 344 345 343 341 343 346 348 348
349 349 347 349 350 349 346 352 353 352 348 346 344 343 344 343 343 344 345 345 345 345 345 343 344 343 342 343 344 345 345 344 344 343 343 341 341 342 338 339 342 345 346 346 346 346 346 344 343
344 353 349 350 347 346 348 350 351 351 349 347 346 346 344 343 343 342 345 344 344 344 344 345 345 342 340 342 343 343 342 344 344 343 344 342 342 341 339 338 342 345 346 345 346 344 342 342 341
346 350 351 351 350 351 350 354 354 350 348 348 347 345 344 342 341 342 344 344 344 344 344 346 345 343 342 344 342 341 342 339 342 342 344 343 337 337 340 340 344 346 346 345 345 343 342 343 342
344 345 347 348 351 349 345 353 351 348 350 350 347 344 343 342 342 343 344 344 343 344 344 346 345 344 342 344 343 342 341 336 338 340 339 337 338 338 337 344 346 347 346 346 345 344 341 343 343
344 343 349 350 348 349 344 346 348 349 350 352 347 345 343 343 342 343 346 344 340 341 343 344 343 344 340 342 343 341 340 338 340 338 340 339 338 340 344 345 347 347 347 347 347 344 342 343 345
346 349 351 352 354 350 348 345 347 348 350 349 348 344 344 344 344 344 345 345 341 337 341 339 342 339 337 339 342 340 339 337 339 341 336 336 337 339 344 344 346 348 348 347 347 345 344 343 344
343 349 351 351 354 351 350 346 346 344 349 349 347 344 343 343 342 343 345 345 343 338 338 336 334 342 341 342 343 341 342 341 343 344 340 336 339 342 338 344 346 347 348 350 348 347 345 342 341
326 346 348 348 354 349 350 349 345 344 345 348 348 343 343 342 340 340 345 344 343 339 339 334 339 344 344 345 344 342 341 343 344 343 341 340 343 341 342 339 345 348 349 349 345 344 342 341 344
342 342 347 346 352 350 349 346 347 345 343 347 347 345 343 344 341 339 340 343 342 341 341 335 341 346 344 345 344 343 344 343 345 344 345 345 347 346 346 336 339 346 350 349 349 345 340 339 341
342 341 345 353 344 342 347 347 347 345 344 347 348 346 344 343 341 339 339 339 342 343 343 339 340 346 345 346 344 343 343 345 342 342 344 346 348 347 345 338 340 343 347 347 349 348 348 346 342
337 344 343 346 341 344 351 348 342 345 347 345 344 345 344 344 341 341 340 339 340 343 344 343 344 346 345 347 345 345 343 346 345 341 344 347 347 346 347 342 338 339 345 344 342 345 344 350 349
333 334 334 331 339 342 340 349 344 347 346 344 342 340 341 345 344 341 341 340 341 343 344 345 345 345 343 347 346 345 345 346 344 346 348 348 348 347 348 346 335 338 341 344 348 350 349 351 351
327 324 332 339 344 343 333 349 342 339 345 344 344 341 339 341 345 343 342 341 342 343 344 345 345 345 343 344 345 346 344 345 344 346 345 347 348 348 349 348 338 339 345 341 350 351 351 351 351
329 318 320 326 333 333 335 343 336 342 342 342 340 341 341 341 344 344 343 343 342 344 344 344 344 345 344 344 344 346 345 345 346 346 346 346 347 347 348 348 348 347 348 343 346 350 348 350 351
318 320 317 327 332 334 334 336 335 345 345 342 343 341 342 341 343 345 344 344 343 344 344 344 345 345 344 344 345 346 346 346 345 344 346 347 347 347 348 347 347 349 350 347 349 350 350 350 351
321 320 328 325 337 340 336 339 340 343 342 346 340 342 340 340 342 344 344 344 344 344 344 345 345 345 344 344 345 346 346 346 346 345 345 346 345 347 347 347 348 348 350 350 351 350 351 351 349
322 328 326 326 327 332 334 331 331 337 339 340 341 341 340 340 342 342 343 344 344 344 346 346 346 345 344 344 345 346 346 346 346 345 345 346 346 346 346 348 349 348 348 350 350 352 351 350 348
320 326 325 326 333 329 328 330 329 339 338 341 342 341 340 339 340 341 342 343 343 344 344 346 347 346 346 344 345 345 345 344 345 345 345 345 346 346 347 348 348 349 348 350 350 349 351 350 350
Wind_Speed
4 3 2 1 3 3 2 3 3 3 3 2 4 1 5 3 2 2 6 5 12 11 9 7 5 8 10 9 7 8 12 14 14 13 13 12 13 14 14 11 10 13 14 15 15 15 15 15 15
4 4 1 1 4 3 2 3 5 1 3 9 8 5 4 3 3 4 5 12 13 12 11 12 11 11 9 9 8 10 13 14 13 14 14 12 13 13 13 13 13 14 14 14 15 15 14 15 15
2 3 3 3 3 2 3 5 5 6 5 2 5 5 3 2 3 8 9 15 14 13 13 13 12 12 11 10 10 12 11 12 14 14 13 13 12 13 15 14 14 14 13 14 14 14 14 14 13
5 2 3 4 6 3 3 6 9 2 5 6 9 8 5 5 3 4 19 16 14 12 12 12 12 13 12 11 12 12 12 11 14 14 13 13 12 15 16 15 15 14 13 14 14 14 14 13 11
4 2 4 4 3 2 4 6 10 3 3 5 3 4 4 4 7 19 17 15 15 12 11 11 11 12 11 10 10 12 13 12 16 16 16 14 15 17 18 16 15 14 12 12 13 12 12 10 10
4 2 3 2 3 3 2 7 7 5 5 5 5 5 2 6 16 17 16 14 12 11 9 10 11 11 8 10 11 12 13 15 17 17 18 15 17 19 17 16 15 13 12 11 11 12 11 9 8
5 3 2 3 5 3 4 7 5 3 5 4 3 4 2 3 12 15 16 13 10 9 9 9 11 11 9 10 11 11 13 14 15 15 15 16 17 16 15 14 13 12 10 9 12 10 8 8 7
3 3 2 1 4 4 2 4 7 10 2 2 8 5 6 6 15 15 14 13 11 9 9 7 8 9 11 10 10 11 12 13 14 13 15 15 15 15 15 14 12 11 10 9 11 9 6 4 5
2 3 3 4 5 6 7 2 5 7 8 1 2 5 10 22 19 17 15 13 12 10 9 8 7 7 9 11 9 10 11 11 12 12 12 13 14 14 13 11 11 11 9 8 7 5 4 3 4
3 2 1 2 6 7 7 8 5 3 7 3 8 15 23 18 18 15 13 12 12 12 10 9 7 8 9 9 8 9 10 10 11 11 10 10 11 10 10 10 11 10 9 7 7 5 4 3 5
1 2 3 7 12 14 10 3 2 1 3 4 8 13 15 14 13 13 13 13 16 14 12 10 8 9 9 8 10 9 9 9 10 10 9 8 6 8 8 9 8 9 9 9 8 7 5 2 2
2 2 4 7 8 6 7 3 4 5 1 7 12 16 15 10 11 12 11 11 14 15 14 11 9 10 11 12 11 10 8 9 9 7 5 5 6 8 7 6 8 8 8 8 6 4 1 2 3
3 5 6 7 6 8 5 3 4 3 3 13 16 14 11 9 11 12 11 14 16 17 15 14 11 11 12 11 9 7 5 6 6 5 4 5 5 5 6 6 6 6 7 6 4 4 4 3 6
3 6 10 6 8 5 7 4 1 5 3 14 14 12 9 8 12 12 13 17 18 18 16 15 12 10 13 10 7 6 6 6 7 7 5 4 3 2 3 3 4 4 4 6 6 7 5 5 7
7 5 5 3 7 5 6 2 4 7 10 14 11 10 9 9 11 16 19 20 20 20 18 16 14 11 12 9 7 6 5 7 6 7 7 3 1 5 3 3 3 3 4 4 5 6 6 5 9
3 4 3 2 3 1 4 2 3 3 5 12 12 10 9 8 14 16 22 21 19 21 21 18 16 14 10 12 8 8 5 2 7 6 6 5 4 4 4 3 4 4 4 5 5 5 7 7 7
5 1 3 2 3 3 2 2 4 7 7 10 10 10 8 9 12 21 20 23 21 23 21 21 19 16 12 13 10 9 8 8 5 4 3 8 8 5 3 5 5 4 4 4 4 7 7 8 6
4 2 2 4 4 2 3 1 3 1 9 7 9 10 11 11 15 21 22 22 20 20 20 22 20 14 10 13 11 8 9 10 7 4 4 6 5 4 3 5 4 5 3 2 8 9 8 6 4
4 3 2 2 6 3 5 5 7 6 4 5 3 8 9 14 10 17 19 22 23 20 18 20 22 17 15 14 13 11 11 11 8 6 6 6 2 5 2 4 5 5 3 7 10 11 11 7 3
2 1 3 1 4 2 2 4 4 7 3 5 4 6 11 4 6 13 17 22 27 25 22 22 22 19 18 16 13 14 12 7 7 5 8 7 4 3 1 4 5 5 6 10 11 9 8 3 4
3 4 3 0 4 1 0 1 5 6 5 9 6 6 4 11 12 8 15 22 25 28 27 27 26 21 21 17 15 11 11 6 9 7 7 6 5 5 4 4 8 6 7 8 9 7 6 5 2
2 7 6 6 3 0 3 3 2 4 5 12 16 11 8 8 10 8 12 17 25 32 30 29 28 24 23 20 18 17 16 9 11 11 9 6 6 5 3 2 7 7 8 8 8 5 3 5 5
4 8 6 3 4 1 1 3 4 1 5 10 12 16 12 10 12 14 16 25 31 27 34 32 29 27 27 24 21 18 16 12 9 12 11 8 8 8 4 4 9 5 5 6 8 5 6 7 5
10 8 8 5 3 4 3 2 4 3 5 4 13 16 17 14 12 14 21 22 25 26 28 33 30 30 28 26 23 21 17 14 12 14 13 12 10 10 7 5 11 7 6 5 5 5 6 6 3
6 6 4 3 3 5 4 2 7 5 5 7 8 14 14 14 12 11 12 18 23 24 27 31 32 32 29 27 24 21 19 16 17 13 17 15 13 12 11 9 8 10 6 9 5 4 2 2 2
7 7 6 5 4 3 4 4 5 5 4 8 8 10 14 15 14 13 17 23 26 27 30 30 32 35 31 27 24 22 20 18 17 16 15 18 15 13 11 11 9 9 7 5 8 3 3 3 3
5 3 4 7 3 2 2 6 5 3 5 5 7 2 8 12 15 16 18 23 26 25 30 36 33 35 34 32 27 25 23 21 20 18 15 19 17 15 13 12 13 11 9 8 8 7 4 4 4
4 5 3 3 3 2 4 5 4 5 8 5 4 7 7 8 11 12 16 20 23 27 30 33 35 37 36 34 31 28 26 24 23 21 18 16 17 16 15 15 15 15 13 11 9 8 8 6 5
3 2 7 5 3 5 1 6 6 4 4 5 4 5 6 6 10 11 14 20 23 22 22 25 32 33 35 36 35 32 30 28 25 24 22 20 18 18 15 15 16 19 17 14 13 12 12 11 10
1 3 5 5 4 1 3 5 2 6 6 5 6 4 4 5 6 7 13 16 18 24 24 22 25 28 33 36 36 35 33 31 30 27 24 22 20 20 18 16 17 20 19 17 15 16 15 14 14
Wind_Direction
140 173 148 98 59 67 43 358 60 90 112 74 117 166 135 50 103 185 138 125 130 131 142 158 147 142 145 144 143 129 128 119 118 123 121 121 121 119 121 117 116 106 98 99 98 95 100 100 99
153 151 103 71 72 53 58 4 68 296 121 124 99 102 55 88 70 107 117 134 128 121 120 120 123 126 127 132 132 123 124 117 121 118 115 115 129 128 118 122 110 102 101 98 94 93 97 99 100
150 227 78 82 85 88 69 55 85 86 160 120 112 54 72 72 90 139 138 138 131 125 116 114 114 117 114 106 106 116 114 122 119 110 112 113 119 118 113 113 108 105 104 100 96 95 99 99 96
162 33 36 65 89 44 29 18 17 57 66 51 116 74 74 107 123 146 141 140 135 131 122 118 115 100 98 101 111 116 113 115 111 108 108 110 115 115 115 111 106 107 98 96 99 102 103 96 90
61 47 63 82 60 24 7 14 6 336 50 64 38 101 68 23 133 143 143 145 141 137 125 117 109 100 92 90 100 115 123 118 107 107 102 102 106 109 106 105 105 102 105 102 104 109 101 97 79
55 100 77 102 93 50 29 8 355 327 60 102 71 77 46 120 131 146 151 147 146 142 129 116 116 112 112 108 105 105 104 108 103 99 96 105 103 98 98 98 99 101 96 96 109 111 102 92 67
96 61 111 127 112 71 352 4 6 2 92 43 94 84 118 88 146 157 164 161 158 149 140 126 125 119 113 99 103 100 95 99 101 107 98 95 95 92 90 92 93 95 103 109 117 115 108 90 56
93 95 42 316 126 110 0 5 289 263 38 102 151 151 170 177 160 159 164 163 165 162 157 140 130 116 112 102 99 96 100 103 108 105 96 99 97 96 95 92 92 91 86 95 127 125 108 73 58
126 85 155 191 143 127 137 191 237 299 143 132 354 109 137 148 160 154 158 165 172 178 169 158 141 124 114 110 109 107 106 106 108 106 102 105 101 98 98 92 84 76 80 94 106 114 117 91 65
57 64 32 156 127 132 134 209 216 182 155 75 76 85 118 133 150 151 165 175 181 185 179 166 153 139 130 125 129 128 127 123 114 108 103 103 103 95 97 89 89 87 89 90 104 122 106 86 77
91 76 49 73 117 138 156 200 230 132 193 194 157 136 136 144 154 168 187 182 187 188 181 174 169 157 148 135 130 124 125 129 121 118 116 114 106 92 86 86 91 90 90 97 103 100 117 110 56
81 27 122 125 129 123 137 323 261 173 241 134 136 145 148 163 172 184 187 195 194 192 185 180 179 163 149 138 129 123 129 129 128 128 127 128 102 86 83 84 75 77 79 89 101 120 172 239 247
78 94 100 116 133 109 94 357 55 186 145 121 127 148 163 172 175 194 200 202 202 197 190 186 183 167 158 149 145 147 165 164 157 153 140 136 109 92 83 68 81 81 87 94 97 106 163 195 212
142 108 123 143 127 134 123 266 169 262 241 127 146 157 178 186 189 189 201 203 210 198 193 191 179 172 168 169 169 165 162 175 184 180 167 139 140 117 66 79 96 78 79 103 94 108 115 82 123
90 85 85 136 152 155 171 218 118 156 167 147 160 163 186 202 191 198 213 208 209 202 198 198 190 180 181 177 162 160 160 178 182 198 201 208 128 204 217 137 95 86 112 123 114 124 120 120 109
111 95 139 219 197 48 174 169 195 176 166 182 161 174 193 209 212 206 216 211 209 209 205 199 200 202 199 190 189 190 185 186 169 194 223 219 184 161 182 122 86 86 120 128 126 130 147 157 144
16 173 99 167 248 135 133 189 192 180 202 189 163 186 196 225 221 217 217 213 213 216 208 206 205 210 214 201 197 190 187 178 158 162 158 213 181 177 139 118 93 96 115 142 165 161 157 159 161
228 245 186 160 191 148 130 175 145 190 174 186 185 192 194 210 220 218 215 217 219 216 214 210 205 207 193 189 183 181 182 194 207 205 188 170 178 178 127 134 111 85 87 180 196 181 177 177 176
136 188 218 149 176 132 200 164 196 151 156 151 213 192 192 212 212 223 213 216 215 215 215 209 206 202 194 193 185 178 190 200 222 222 209 185 164 178 113 144 126 103 112 139 141 150 169 152 146
287 167 194 45 149 61 147 227 199 173 175 183 190 202 200 213 194 216 203 201 210 215 215 206 205 204 197 195 195 192 201 211 199 196 201 218 211 200 175 166 158 133 137 163 157 144 149 128 180
207 200 142 102 123 195 142 289 147 226 161 182 197 239 245 200 201 202 196 196 204 215 213 211 212 211 208 204 194 179 177 160 186 188 197 219 218 213 239 209 184 176 158 159 181 173 170 143 148
206 206 116 121 89 69 50 293 191 229 190 198 191 207 214 199 200 206 201 197 202 215 217 217 219 214 210 203 196 188 194 185 202 208 205 208 221 226 235 230 195 193 184 158 165 161 139 114 116
232 104 114 122 93 116 342 65 272 126 187 214 211 203 202 201 196 197 202 209 213 209 215 219 220 220 212 208 202 203 193 202 196 195 209 215 218 225 220 241 197 212 214 198 192 167 133 103 95
120 81 47 54 46 6 322 113 278 219 208 206 208 212 204 193 194 200 207 209 212 206 209 217 218 217 214 209 208 207 206 206 196 198 206 214 221 222 228 238 209 216 212 196 182 165 141 134 105
78 60 27 17 13 225 344 38 247 248 260 233 250 217 206 190 191 193 181 190 199 199 205 213 217 217 215 217 214 212 212 213 213 219 215 207 213 221 226 226 214 213 223 209 207 199 178 152 170
172 157 150 180 188 244 30 235 262 213 277 300 277 206 194 197 190 191 190 190 198 199 205 209 217 220 216 217 218 218 217 217 217 224 223 214 216 222 230 234 224 226 233 233 211 217 243 261 277
198 178 168 103 2 69 240 294 301 252 280 342 346 108 206 207 194 194 189 191 194 200 204 211 215 216 218 217 219 218 223 224 226 230 235 227 227 236 232 241 246 241 239 230 228 246 247 275 270
123 140 80 14 128 238 298 283 242 250 260 235 257 237 219 203 199 198 193 191 195 202 208 212 216 217 220 223 222 222 223 228 230 232 234 233 233 228 235 247 245 242 239 242 238 244 245 253 271
54 60 55 108 100 150 189 273 212 191 176 216 272 297 294 259 216 197 191 194 199 198 203 210 216 220 223 226 227 228 227 228 232 236 239 239 238 232 245 245 255 239 234 236 242 243 240 251 260
173 135 135 122 210 100 139 274 204 169 177 184 212 256 299 301 247 201 195 192 188 197 208 213 219 217 227 232 232 234 235 231 231 236 240 241 248 235 238 251 257 245 231 234 242 246 245 260 263